Home   Weather   Nouadhibou   Past weeks

Flag for Mauritania Past Weather in Nouadhibou, Mauritania — Yesterday and Last 2 Weeks

Now
72 °F

Clear.


Feels Like: 77 °F
Forecast: 68 / 76 °F
Wind: 12 mph from North

Location: Nouadhibou Airport

Current Time: Dec 3, 2016 at 2:44:22 am

Latest Report: Dec 3, 2016 at 2:00 am


Visibility: 5 mi

Pressure: 29.98 "Hg

Humidity: 53%

Dew Point: 54 °F

Location of NouadhibouLocation

Past Weather in Nouadhibou — Graph

°F

Nouadhibou Temperature Yesterday

Maximum temperature yesterday: 88 °F (at 4:00 pm)
Minimum temperature yesterday: 72 °F (at 5:00 am)
Average temperature yesterday: 78 °F

High & Low Weather Summary for the Past Weeks

 TemperatureHumidityPressure
High88 °F (Nov 20, 2:00 pm)94% (Nov 28, 4:00 am)32.90 "Hg (Nov 28, 4:00 am)
Low63 °F (Nov 28, 4:00 am)31% (Nov 20, 2:00 pm)29.86 "Hg (Nov 18, 4:00 am)
Average72 °F64%29.97 "Hg
* Reported Nov 18 1:00 am — Dec 3 1:00 am, Nouadhibou, Weather by CustomWeather, © 2016

Note: Actual official high and low records may vary slightly from our data, if they occured in-between our weather recording intervals... More about our weather records

Advertising

Nouadhibou Weather History for the Previous 24 Hours

Scroll right to see more
 ConditionsComfort  
Time TempWeatherWind HumidityBarometerVisibility
1:00 am
Sat, Dec 3
72 °FClear.12 mph57%30.01 "Hg5 mi
12:00 am72 °FClear.16 mph61%30.01 "Hg5 mi
11:00 pm
Fri, Dec 2
73 °FClear.14 mph53%30.01 "Hg5 mi
10:00 pm75 °FClear.14 mph50%29.98 "Hg5 mi
9:00 pm77 °FClear.14 mph47%29.98 "Hg5 mi
8:00 pm73 °FClear.6 mph65%29.95 "Hg5 mi
7:00 pm81 °FPassing clouds.3 mph48%29.95 "Hg5 mi
6:00 pm86 °FPassing clouds.8 mph40%29.95 "Hg5 mi
5:00 pm82 °FPassing clouds.8 mph45%29.95 "Hg5 mi
4:00 pm88 °FPassing clouds.9 mph33%29.95 "Hg5 mi
3:00 pm84 °FPassing clouds.12 mph43%29.95 "Hg5 mi
2:00 pm84 °FPassing clouds.8 mph40%29.98 "Hg5 mi
1:00 pm86 °FClear.14 mph33%30.01 "Hg5 mi
12:00 pm84 °FClear.12 mph35%30.01 "Hg5 mi
11:00 am77 °FClear.10 mph51%30.04 "Hg5 mi
10:00 am77 °FClear.14 mph47%30.04 "Hg5 mi
8:00 am72 °FClear.12 mph50%30.01 "Hg5 mi
7:00 am73 °FClear.12 mph47%29.98 "Hg5 mi
6:00 am73 °FClear.N/A47%29.98 "Hg5 mi
5:00 am72 °FClear.12 mph53%29.98 "Hg5 mi
4:00 am73 °FClear.No wind47%30.01 "Hg5 mi
3:00 am73 °FClear.12 mph44%30.01 "Hg5 mi
2:00 am73 °FClear.No wind50%30.04 "Hg5 mi
Weather by CustomWeather, © 2016

See weather overviewHow to use our weather pages